Station RTAT2 - 8775237 - Port Aransas, TX Image indicating link to RSS feed of recent meteorological observations for station RTAT2


Conditions at RTAT2 as of
(5:00 am CDT)
1000 GMT on 04/21/2024:
     

Click on the graph icon in the table below to see a time series plot of the last five days of that observation.

5-day plot - Wind Direction Wind Direction (WDIR): NE ( 40 deg true )
5-day plot - Wind Speed Wind Speed (WSPD): 17.1 kts
5-day plot - Wind Gust Wind Gust (GST): 22.9 kts
5-day plot - Atmospheric Pressure Atmospheric Pressure (PRES):29.99 in
5-day plot - Pressure Tendency Pressure Tendency (PTDY):+0.02 in ( Rising )
5-day plot - Air Temperature Air Temperature (ATMP): 73.0 °F
5-day plot - Water Temperature Water Temperature (WTMP): 78.8 °F
5-day plot - Wind Speed at 10 Meters Wind Speed at 10 meters (WSPD10M): 17.5 kts
5-day plot - Wind Speed at 20 Meters Wind Speed at 20 meters (WSPD20M): 19.4 kts
5-day plot -  Wind Speed, Wind Gust and Atmospheric Pressure Combined plot of Wind Speed, Gust, and Air Pressure
Previous observations
TIME
(CDT)
5-day plot - Wind Direction
WDIR
 
5-day plot - Wind Speed
WSPD
kts
5-day plot - Wind Gust
GST
kts
5-day plot - Wave Height
WVHT
ft
5-day plot - Dominant Wave Period
DPD
sec
5-day plot - Average Wave Period
APD
sec
5-day plot - Mean Wave Direction
MWD
 
5-day plot - Atmospheric Pressure
PRES
in
5-day plot - Pressure Tendency
PTDY
in
5-day plot - Air Temperature
ATMP
°F
5-day plot - Water Temperature
WTMP
°F
5-day plot - Dew Point
DEWP
°F
5-day plot - Salinity
SAL
psu
5-day plot - Visibility
VIS
nmi
5-day plot - Tide (above MLLW)
TIDE
ft
2024-04-21 04:54 am NE 20.0 24.1----29.98- 72.9 78.8----
2024-04-21 04:48 am NE 19.0 22.9----29.98- 72.7 78.8----
2024-04-21 04:42 am NE 21.0 25.1----29.98- 72.9 78.8----
2024-04-21 04:36 am NE 22.0 24.1----29.98- 72.7 79.0----
2024-04-21 04:30 am NE 21.0 24.1----29.99- 72.5 79.0----
2024-04-21 04:24 am NE 20.0 24.1----29.99- 72.1 78.8----
2024-04-21 04:18 am NE 17.1 24.1----30.00- 72.9 78.8----
2024-04-21 04:12 am NE 19.0 24.1----30.00- 72.7 78.8----
2024-04-21 04:06 am NE 19.0 22.0----30.01- 72.5 78.8----
2024-04-21 04:00 am NE 18.1 24.1----30.01+0.02 72.3 78.6----
2024-04-21 03:54 amNNE 21.0 26.0----30.01- 72.0 78.6----
2024-04-21 03:48 am NE 20.0 25.1----30.01- 71.8 78.6----
2024-04-21 03:42 amNNE 22.0 27.0----30.00- 72.0 78.4----
2024-04-21 03:36 amNNE 22.0 27.0----29.99- 71.4 78.4----
2024-04-21 03:30 amNNE 21.0 28.0----29.99- 71.6 78.4----
2024-04-21 03:24 amNNE 21.0 25.1----29.99- 71.8 78.4----
2024-04-21 03:18 amNNE 20.0 25.1----29.99-- 78.3----
2024-04-21 03:12 am N 20.0 25.1----29.98-- 78.3----
2024-04-21 03:06 am N 18.1 28.0----29.98-- 78.3----
2024-04-21 03:00 am N 19.0 25.1------ 70.2 78.1----
2024-04-21 02:54 am N 18.1 25.1------ 69.6 77.7----
2024-04-21 02:48 am N 19.0 25.1----29.98- 69.1 77.7----
2024-04-21 02:42 am N 19.0 25.1----29.98- 68.5 77.7----
2024-04-21 02:36 am N 19.0 26.0----29.98- 68.2 77.5----
2024-04-21 02:30 am N 19.0 24.1----29.97- 67.6 77.5----
2024-04-21 02:24 am N 19.0 22.0----29.96- 67.8 77.5----
2024-04-21 02:18 amNNE 19.0 25.1----29.96- 68.0 77.5----
2024-04-21 02:12 am N 19.0 25.1----29.96- 68.2 77.5----
2024-04-21 02:06 amNNE 18.1 24.1----29.96- 68.7 77.5----
2024-04-21 02:00 am N 19.0 22.9----29.97+0.03 68.2 77.5----
2024-04-21 01:54 am N 19.0 24.1----29.98- 68.0 77.5----
2024-04-21 01:48 am N 19.0 22.9----29.98- 67.8 77.5----
2024-04-21 01:42 amNNE 17.1 22.9----29.98- 68.2 77.5----
2024-04-21 01:36 amNNE 20.0 22.9----29.98- 67.8 77.5----
2024-04-21 01:30 amNNE 18.1 22.0----29.98- 67.8 77.5----
2024-04-21 01:24 am N 18.1 22.0----29.98- 67.6 77.5----
2024-04-21 01:18 am N 18.1 25.1----29.98- 68.0 77.5----
2024-04-21 01:12 am N 20.0 24.1----29.98- 68.5 77.5----
2024-04-21 01:06 am N 19.0 27.0----29.98- 67.8 77.5----
2024-04-21 01:00 am N 19.0 26.0----29.98+0.07 67.6 77.7----
2024-04-21 12:54 am N 20.0 26.0----30.00- 68.0 77.7----
2024-04-21 12:48 amNNW 19.0 25.1----30.01- 68.5 77.7----
2024-04-21 12:42 amNNW 18.1 24.1----30.02- 69.1 77.7----
2024-04-21 12:36 amNNW 17.1 24.1----30.02- 69.6 77.7----
2024-04-21 12:30 amNNW 15.9 24.1----30.01- 70.3 77.7----
2024-04-21 12:24 amNNW 18.1 21.0----30.00- 71.6 77.7----
2024-04-21 12:18 amNNE 15.0 17.1----29.98- 75.2 77.7----
2024-04-21 12:12 amNNE 14.0 18.1----29.97- 75.2 77.7----
2024-04-21 12:06 amNNE 15.9 19.0----29.95- 75.2 77.7----
2024-04-21 12:00 am NE 15.9 18.1----29.94+0.08 75.4 77.7----
2024-04-20 11:54 pmNNE 14.0 17.1----29.96- 75.2 77.7----
2024-04-20 11:48 pm NE 14.0 17.1----29.95- 75.4 77.7----
2024-04-20 11:42 pm NE 13.0 15.9----29.93- 75.4 77.7----
2024-04-20 11:36 pm NE 12.0 14.0----29.94- 75.4 77.7----
2024-04-20 11:30 pmNNE 12.0 14.0----29.95- 75.6 77.7----
2024-04-20 11:24 pmNNE 11.1 14.0----29.95- 75.4 77.7----
2024-04-20 11:18 pm NE 12.0 13.0----29.95- 75.4 77.7----
2024-04-20 11:12 pmNNE 11.1 13.0----29.95- 75.4 77.7----
2024-04-20 11:06 pm NE 9.9 12.0----29.94- 75.4 77.7----
2024-04-20 11:00 pm NE 11.1 12.0----29.94+0.09 75.6 77.7----
2024-04-20 10:54 pm NE 11.1 12.0----29.94- 75.4 77.7----
2024-04-20 10:48 pmNNE 8.9 11.1----29.94- 75.4 77.7----
2024-04-20 10:42 pm NE 11.1 12.0----29.93- 75.2 77.7----
2024-04-20 10:36 pm NE 9.9 11.1----29.93- 75.2 77.7----
2024-04-20 10:30 pm NE 8.9 11.1----29.94- 75.4 77.7----
2024-04-20 10:24 pm NE 9.9 12.0----29.93- 75.2 77.7----
2024-04-20 10:18 pm NE 8.9 9.9----29.93- 75.2 77.7----
2024-04-20 10:12 pm NE 8.9 11.1----29.93- 75.2 77.7----
2024-04-20 10:06 pm NE 8.9 11.1----29.92- 75.4 77.7----
2024-04-20 10:00 pmENE 8.0 11.1----29.91+0.07 75.2 77.7----
2024-04-20 09:54 pmENE 8.9 9.9----29.91- 75.0 77.7----
2024-04-20 09:48 pmENE 8.0 9.9----29.91- 75.2 77.7----
2024-04-20 09:42 pmENE 8.0 9.9----29.90- 75.2 77.7----
2024-04-20 09:36 pmENE 8.0 11.1----29.89- 75.2 77.7----
2024-04-20 09:30 pm E 8.0 11.1----29.88- 75.2 77.7----
2024-04-20 09:24 pmENE 7.0 12.0----29.88- 75.2 77.7----
2024-04-20 09:18 pm E 8.0 11.1----29.87- 75.2 77.7----
2024-04-20 09:12 pm E 8.9 12.0----29.87- 75.0 77.7----
2024-04-20 09:06 pm E 9.9 12.0----29.86- 75.0 77.7----
2024-04-20 09:00 pm E 8.0 11.1----29.86+0.02 75.0 77.7----
2024-04-20 08:54 pm E 6.0 11.1----29.86- 75.2 77.7----
2024-04-20 08:48 pmENE 8.0 11.1----29.86- 75.4 77.7----
2024-04-20 08:42 pmENE 9.9 14.0----29.86- 75.2 77.7----
2024-04-20 08:36 pmENE 8.0 13.0----29.86- 75.4 77.7----
2024-04-20 08:30 pm E 8.0 12.0----29.86- 75.2 77.7----
2024-04-20 08:24 pm E 8.0 12.0----29.86- 75.4 77.7----
2024-04-20 08:18 pmENE 9.9 13.0----29.86- 75.4 77.7----
2024-04-20 08:12 pmENE 8.9 11.1----29.86- 75.6 77.7----
2024-04-20 08:06 pmENE 8.0 12.0----29.85- 75.6 77.7----
2024-04-20 08:00 pmENE 8.9 15.0----29.85+0.01 75.6 77.7----
2024-04-20 07:54 pm E 9.9 13.0----29.85- 75.6 77.7----
2024-04-20 07:48 pmENE 9.9 12.0----29.85- 75.6 77.7----
2024-04-20 07:42 pmENE 9.9 14.0----29.85- 75.6 77.7----
2024-04-20 07:36 pm E 8.9 14.0----29.85- 75.7 77.7----
2024-04-20 07:30 pmENE 9.9 15.0----29.85- 75.7 77.7----
2024-04-20 07:24 pmENE 12.0 15.9----29.84- 75.9 77.7----
2024-04-20 07:18 pmENE 11.1 15.0------ 76.1 77.7----
2024-04-20 07:12 pmENE 11.1 15.0------ 76.1 77.7----
2024-04-20 07:06 pmENE 8.9 14.0------ 76.3 77.7----
2024-04-20 07:00 pm E 12.0 15.0----29.84-0.03 76.3 77.7----
2024-04-20 06:54 pm E 12.0 15.9----29.84- 76.3 77.7----
2024-04-20 06:48 pmENE 12.0 14.0----29.84-- 77.7----
2024-04-20 06:42 pmENE 12.0 15.9----29.84-- 77.7----
2024-04-20 06:36 pmENE 12.0 15.9----29.84-- 77.7----
2024-04-20 06:30 pm E 11.1 15.0----29.84- 76.6 77.7----
2024-04-20 06:24 pm E 11.1 14.0----29.84- 77.0 77.7----
2024-04-20 06:18 pm E 9.9 15.0----29.84-- 77.7----
2024-04-20 06:12 pm E 12.0 14.0----29.84-- 77.7----
2024-04-20 06:06 pm E 9.9 14.0----29.84-- 77.7----
2024-04-20 06:00 pm E 8.9 13.0----29.84-0.06 77.4 77.7----
2024-04-20 05:54 pm E 8.9 14.0----29.84- 77.4 77.7----
2024-04-20 05:48 pm E 9.9 15.0----29.84- 77.2 77.7----
2024-04-20 05:42 pm E 9.9 13.0----29.84- 77.7 77.7----
2024-04-20 05:36 pm E 8.0 12.0----29.84- 78.4 77.7----
2024-04-20 05:30 pm E 8.9 14.0----29.84- 78.1 77.7----
2024-04-20 05:24 pm E 11.1 15.0----29.84- 77.5 77.7----
2024-04-20 05:18 pm E 9.9 15.0----29.84- 77.5 77.7----
2024-04-20 05:12 pm E 8.9 15.0----29.84- 78.3 77.7----
2024-04-20 05:06 pmESE 11.1 15.0----29.84- 77.5 77.7----
2024-04-20 05:00 pm-------29.84-0.08 77.5 77.7----
2024-04-20 04:54 pm-------29.85- 78.1 77.7----
2024-04-20 04:48 pmESE 9.9 15.0----29.85- 78.1 77.7----
2024-04-20 04:42 pmESE 7.0 15.0----29.85- 78.4 77.7----
2024-04-20 04:36 pmESE 11.1 15.0----29.86- 77.9 77.7----
2024-04-20 04:30 pmESE 8.9 14.0----29.86- 77.9 77.7----
2024-04-20 04:24 pmESE 8.9 15.0----29.86- 78.3 77.7----
2024-04-20 04:18 pmESE 8.0 13.0----29.87- 78.4 77.7----
2024-04-20 04:12 pmESE 8.9 15.0----29.87- 78.3 77.7----
2024-04-20 04:06 pmESE 7.0 14.0----29.87- 78.6 77.7----
2024-04-20 04:00 pmESE 11.1 14.0----29.88-0.06 77.7 77.7----
2024-04-20 03:54 pmESE 9.9 13.0----29.88- 77.9 77.7----
2024-04-20 03:48 pmESE 8.0 15.0----29.88-- 77.7----
2024-04-20 03:42 pmESE 6.0 12.0----29.88-- 77.7----
2024-04-20 03:36 pmESE 9.9 14.0----29.89-- 77.7----
2024-04-20 03:30 pm E 7.0 12.0----29.89- 79.2 77.7----
2024-04-20 03:24 pm E 8.9 12.0----29.89- 78.8 77.7----
2024-04-20 03:18 pm E 8.0 12.0------ 78.8 77.7----
2024-04-20 03:12 pmESE 9.9 13.0------ 78.3 77.7----
2024-04-20 03:06 pm E 8.0 12.0------ 78.6 77.5----
2024-04-20 03:00 pm-------29.90+0.00 78.1 77.5----
2024-04-20 02:54 pm-------29.90- 78.6 77.5----
2024-04-20 02:48 pmESE 6.0 11.1----29.91- 79.3 77.5----
2024-04-20 02:42 pmESE 8.9 11.1----29.91- 78.6 77.4----
2024-04-20 02:36 pm SE 8.0 12.0----29.91- 78.4 77.4----
2024-04-20 02:30 pm SE 8.9 13.0----29.91- 78.3 77.4----
2024-04-20 02:24 pmESE 8.0 13.0----29.92- 78.3 77.4----
2024-04-20 02:18 pm E 8.0 13.0----29.92- 78.6 77.4----
2024-04-20 02:12 pm SE 6.0 14.0----29.92- 79.2 77.4----
2024-04-20 02:06 pmESE 8.9 12.0----29.92- 78.4 77.4----
2024-04-20 02:00 pm SE 6.0 12.0----29.92+0.01------
2024-04-20 01:54 pm SE 6.0 11.1----29.92-------
2024-04-20 01:48 pmSSE 8.0 14.0----29.92- 79.2 77.2----
2024-04-20 01:42 pm SE 9.9 13.0----29.93- 78.3 77.2----
2024-04-20 01:36 pmSSE 8.0 15.0----29.93- 79.0 77.2----
2024-04-20 01:30 pm SE 8.0 15.0------ 79.3 77.2----
2024-04-20 01:24 pmSSE 8.9 17.1------ 80.1 77.2----
2024-04-20 01:18 pmSSE 11.1 18.1----29.93- 79.9 77.2----
2024-04-20 01:12 pmSSE 13.0 17.1----29.92- 78.8 77.2----
2024-04-20 01:06 pmSSE 7.0 13.0----29.93- 78.4 77.2----
2024-04-20 01:00 pm SE 8.0 12.0----29.93+0.00 78.4 77.2----
2024-04-20 12:54 pmSSE 8.0 13.0----29.94- 78.1 77.2----
2024-04-20 12:48 pmSSE 8.0 11.1----29.94- 77.5 77.2----
2024-04-20 12:42 pmSSE 7.0 9.9----29.94- 76.8 77.2----
2024-04-20 12:36 pm S 7.0 11.1----29.95- 76.6 77.2----
2024-04-20 12:30 pmSSE 7.0 11.1----29.95- 76.6 77.2----
2024-04-20 12:24 pm SE 4.1 6.0----29.94- 76.8 77.2----
2024-04-20 12:18 pmESE 7.0 9.9----29.93- 76.5 77.2----
2024-04-20 12:12 pmESE 7.0 12.0----29.92- 76.8 77.2----
2024-04-20 12:06 pm E 9.9 15.9----29.91- 76.8 77.2----
2024-04-20 12:00 pm E 12.0 18.1----29.90-0.03 77.0 77.2----
2024-04-20 11:54 am E 14.0 17.1----29.90- 76.6 77.2----
2024-04-20 11:48 am E 11.1 15.0----29.91- 77.2 77.2----
2024-04-20 11:42 am E 8.9 15.9----29.91- 77.2 77.2----
2024-04-20 11:36 am E 12.0 18.1----29.91- 77.0 77.2----
2024-04-20 11:30 am E 12.0 15.9----29.90- 77.0 77.2----
2024-04-20 11:24 am E 12.0 17.1----29.90- 77.2 77.2----
2024-04-20 11:18 am E 12.0 17.1----29.90- 76.8 77.2----
2024-04-20 11:12 am E 14.0 19.0----29.90- 76.8 77.2----
2024-04-20 11:06 am E 12.0 22.0----29.90- 77.5 77.2----
2024-04-20 11:00 am E 18.1 21.0----29.91-0.04 76.8 77.2----
2024-04-20 10:54 am E 15.9 21.0----29.91- 76.5 77.2----
2024-04-20 10:48 am E 14.0 20.0----29.92- 76.5 77.2----
2024-04-20 10:42 am E 13.0 19.0----29.93- 76.5 77.2----
2024-04-20 10:36 am E 9.9 15.0----29.92- 76.3 77.2----
2024-04-20 10:30 am E 11.1 17.1----29.91- 76.1 77.2----
2024-04-20 10:24 am E 12.0 20.0----29.91- 76.3 77.2----
2024-04-20 10:18 am E 13.0 22.0----29.91- 76.3 77.2----
2024-04-20 10:12 am E 15.9 21.0----29.92- 76.3 77.2----
2024-04-20 10:06 amESE 9.9 17.1----29.93- 76.5 77.2----
2024-04-20 10:00 am E 13.0 19.0----29.93+0.00 76.3 77.2----
2024-04-20 09:54 amESE 13.0 19.0----29.94- 76.3 77.2----
2024-04-20 09:48 amESE 11.1 19.0----29.94- 76.3 77.2----
2024-04-20 09:42 amESE 11.1 17.1----29.94- 76.3 77.2----
2024-04-20 09:36 amESE 8.9 15.9----29.94- 76.3 77.2----
2024-04-20 09:30 amESE 11.1 17.1----29.94- 76.1 77.2----
2024-04-20 09:24 amESE 12.0 17.1----29.94- 75.9 77.2----
2024-04-20 09:18 amESE 11.1 14.0----29.94- 75.9 77.2----
2024-04-20 09:12 amESE 8.9 18.1----29.94- 75.9 77.2----
2024-04-20 09:06 amESE 9.9 14.0----29.94- 75.9 77.2----
2024-04-20 09:00 amESE 12.0 15.9----29.93+0.00 75.9 77.2----
2024-04-20 08:54 am E 11.1 15.0----29.94- 75.9 77.2----
2024-04-20 08:48 am E 13.0 17.1----29.93-- 77.2----
2024-04-20 08:42 am E 9.9 13.0----29.93-- 77.2----
2024-04-20 08:36 am E 9.9 13.0----29.93-- 77.2----
2024-04-20 08:30 am E 11.1 14.0----29.93- 75.7 77.2----
2024-04-20 08:24 am E 9.9 14.0----29.93- 75.7 77.2----
2024-04-20 08:18 am E 9.9 13.0----29.94- 75.7 77.2----
2024-04-20 08:12 am E 7.0 9.9----29.94- 75.7 77.2----
2024-04-20 08:06 am E 8.0 9.9----29.94- 75.7 77.2----
2024-04-20 08:00 am E 6.0 9.9----29.95+0.01 75.6 77.2----
2024-04-20 07:54 am E 5.1 8.0----29.95- 75.7 77.2----
2024-04-20 07:48 am E 5.1 8.0----29.95- 75.6 77.4----
2024-04-20 07:42 am E 7.0 8.9----29.95- 75.4 77.4----
2024-04-20 07:36 am E 6.0 8.0----29.94- 75.4 77.4----
2024-04-20 07:30 am E 5.1 8.0----29.94- 75.4 77.4----
2024-04-20 07:24 am E 6.0 8.9----29.94- 75.4 77.4----
2024-04-20 07:18 am E 5.1 8.9----29.94- 75.4 77.4----
2024-04-20 07:12 am E 6.0 8.0----29.93- 75.4 77.4----
2024-04-20 07:06 am E 5.1 7.0----29.94- 75.4 77.4----
2024-04-20 07:00 am E 6.0 8.0----29.94+0.03 75.2 77.4----
2024-04-20 06:54 am E 6.0 8.0----29.94- 75.2 77.4----
2024-04-20 06:48 am E 4.1 6.0----29.94- 75.4 77.4----
2024-04-20 06:42 am E 7.0 8.9----29.94- 75.2 77.4----
2024-04-20 06:36 am E 5.1 6.0----29.94- 75.2 77.4----
2024-04-20 06:30 am E 4.1 5.1----29.95- 75.4 77.4----
2024-04-20 06:24 am E 2.9 5.1----29.95- 75.4 77.4----
2024-04-20 06:18 am E 4.1 7.0----29.95- 75.4 77.4----
2024-04-20 06:12 amENE 6.0 8.0----29.94- 75.4 77.4----
2024-04-20 06:06 am E 5.1 8.9----29.94- 75.4 77.4----
2024-04-20 06:00 am E 6.0 7.0----29.94+0.02 75.4 77.4----
2024-04-20 05:54 amENE 6.0 8.0----29.94- 75.4 77.4----
2024-04-20 05:48 amENE 5.1 7.0----29.94- 75.6 77.4----
2024-04-20 05:42 amENE 5.1 8.0----29.93- 75.6 77.4----
2024-04-20 05:36 amENE 5.1 7.0----29.93- 75.6 77.4----
2024-04-20 05:30 amENE 6.0 7.0----29.93-- 77.4----
2024-04-20 05:24 amENE 5.1 6.0----29.93-- 77.4----
2024-04-20 05:18 amENE 4.1 6.0----29.93- 75.6 77.4----
2024-04-20 05:12 amENE 4.1 5.1----29.94- 75.6 77.4----
2024-04-20 05:06 amENE 4.1 5.1----29.94- 75.6 77.4----
2024-04-20 05:00 am E 5.1 5.1----29.93+0.00- 77.4----
2024-04-20 04:54 amENE 4.1 5.1----29.93-- 77.4----